Location: Eboldshausen
(51.7766°N, 10.0050°E)
Time: 15:58:36
(UTC+00:00)

Resurs 01 Rocket - Pass Details

Date: 15 November 2025
Orbit: 626 x 637 km, 97.7° (Epoch: 13 December)

Event Time Altitude Azimuth Distance (km) Brightness Sun altitude
Exits shadow 18:03:53 39° 9° (N) 961 2.4 -23.7°
Drops below altitude 10° 18:06:49 10° 352° (N) 2,038 4.3 -24.1°
Sets 18:09:02 0° 349° (N) 2,951 5.2 -24.5°
